Time,TemperatureF,DewpointF,PressureIn,WindDirection,WindDirectionDegrees,WindSpeedMPH,WindSpeedGustMPH,Humidity,HourlyPrecipIn,Conditions,Clouds,dailyrainin,SoftwareType,DateUTC
2013-05-06 00:01:00,48.9,41.3,29.96,ESE,107,0.0,0.0,75,0.00,,,0.00,WeatherCatV1.15B25,2013-05-06 04:01:00,
2013-05-06 00:06:00,48.8,42.2,29.96,ESE,107,0.0,0.0,78,0.00,,,0.00,WeatherCatV1.15B25,2013-05-06 04:06:00,
2013-05-06 00:11:00,48.7,41.5,29.96,ESE,107,0.0,0.0,76,0.00,,,0.00,WeatherCatV1.15B25,2013-05-06 04:11:00,
2013-05-06 00:16:00,48.5,40.9,29.96,ESE,107,0.0,0.0,75,0.00,,,0.00,WeatherCatV1.15B25,2013-05-06 04:16:00,
2013-05-06 00:21:00,48.3,41.4,29.96,ESE,107,0.0,0.0,77,0.00,,,0.00,WeatherCatV1.15B25,2013-05-06 04:21:00,
2013-05-06 00:26:00,48.3,41.4,29.95,ESE,107,0.0,0.0,77,0.00,,,0.00,WeatherCatV1.15B25,2013-05-06 04:26:00,
2013-05-06 00:31:00,48.4,41.2,29.96,ESE,107,0.0,0.0,76,0.00,,,0.00,WeatherCatV1.15B25,2013-05-06 04:31:00,
2013-05-06 00:36:00,48.7,40.8,29.96,ESE,107,0.0,0.0,74,0.00,,,0.00,WeatherCatV1.15B25,2013-05-06 04:36:00,
2013-05-06 00:41:00,48.9,39.9,29.96,ESE,107,0.0,1.0,71,0.00,,,0.00,WeatherCatV1.15B25,2013-05-06 04:41:00,
2013-05-06 00:46:00,49.7,39.9,29.96,ESE,107,0.0,0.0,69,0.00,,,0.00,WeatherCatV1.15B25,2013-05-06 04:46:00,
2013-05-06 00:51:00,50.5,39.6,29.96,ESE,107,0.0,0.0,66,0.00,,,0.00,WeatherCatV1.15B25,2013-05-06 04:51:00,
2013-05-06 00:56:00,51.2,39.8,29.96,ESE,107,0.0,0.0,65,0.00,,,0.00,WeatherCatV1.15B25,2013-05-06 04:56:00,
2013-05-06 01:01:00,51.7,39.5,29.96,ESE,107,2.0,2.0,63,0.00,,,0.00,WeatherCatV1.15B25,2013-05-06 05:01:00,
2013-05-06 01:06:00,52.4,39.8,29.96,ESE,105,2.0,2.0,62,0.00,,,0.00,WeatherCatV1.15B25,2013-05-06 05:06:00,
2013-05-06 01:11:00,52.9,39.8,29.96,ESE,105,0.0,1.0,61,0.00,,,0.00,WeatherCatV1.15B25,2013-05-06 05:11:00,
2013-05-06 01:16:00,52.9,39.8,29.96,ESE,105,1.0,1.0,61,0.00,,,0.00,WeatherCatV1.15B25,2013-05-06 05:16:00,
2013-05-06 01:21:00,52.6,39.5,29.96,ESE,105,1.0,2.0,61,0.00,,,0.00,WeatherCatV1.15B25,2013-05-06 05:21:00,
2013-05-06 01:26:00,52.8,39.7,29.96,ESE,105,0.0,2.0,61,0.00,,,0.00,WeatherCatV1.15B25,2013-05-06 05:26:00,
2013-05-06 01:31:00,52.9,39.8,29.96,ESE,105,0.0,1.0,61,0.00,,,0.00,WeatherCatV1.15B25,2013-05-06 05:31:00,
2013-05-06 01:36:00,53.0,39.9,29.95,ESE,105,1.0,2.0,61,0.00,,,0.00,WeatherCatV1.15B25,2013-05-06 05:36:00,
2013-05-06 01:41:00,53.1,40.0,29.95,ESE,105,1.0,1.0,61,0.00,,,0.00,WeatherCatV1.15B25,2013-05-06 05:41:00,
2013-05-06 01:46:00,53.0,39.9,29.95,ESE,105,0.0,2.0,61,0.00,,,0.00,WeatherCatV1.15B25,2013-05-06 05:46:00,
2013-05-06 01:51:00,53.0,39.9,29.95,ESE,105,1.0,2.0,61,0.00,,,0.00,WeatherCatV1.15B25,2013-05-06 05:51:00,
2013-05-06 01:56:00,52.9,39.8,29.95,ESE,105,0.0,1.0,61,0.00,,,0.00,WeatherCatV1.15B25,2013-05-06 05:56:00,
2013-05-06 02:01:00,52.6,40.0,29.95,ESE,105,0.0,0.0,62,0.00,,,0.00,WeatherCatV1.15B25,2013-05-06 06:01:00,
2013-05-06 02:06:00,52.3,39.7,29.95,ESE,105,0.0,1.0,62,0.00,,,0.00,WeatherCatV1.15B25,2013-05-06 06:06:00,
2013-05-06 02:11:00,52.0,39.8,29.95,ESE,105,0.0,1.0,63,0.00,,,0.00,WeatherCatV1.15B25,2013-05-06 06:11:00,
2013-05-06 02:16:00,51.8,39.6,29.95,ESE,105,0.0,0.0,63,0.00,,,0.00,WeatherCatV1.15B25,2013-05-06 06:16:00,
2013-05-06 02:21:00,51.8,40.0,29.95,ESE,105,0.0,0.0,64,0.00,,,0.00,WeatherCatV1.15B25,2013-05-06 06:21:00,
2013-05-06 02:26:00,51.5,39.7,29.95,ESE,105,0.0,0.0,64,0.00,,,0.00,WeatherCatV1.15B25,2013-05-06 06:26:00,
2013-05-06 02:31:00,51.0,39.7,29.95,ESE,105,0.0,1.0,65,0.00,,,0.00,WeatherCatV1.15B25,2013-05-06 06:31:00,
2013-05-06 02:36:00,50.5,40.3,29.95,ESE,105,0.0,0.0,68,0.00,,,0.00,WeatherCatV1.15B25,2013-05-06 06:36:00,
2013-05-06 02:41:00,50.1,40.3,29.95,ESE,105,0.0,0.0,69,0.00,,,0.00,WeatherCatV1.15B25,2013-05-06 06:41:00,
2013-05-06 02:46:00,49.7,39.9,29.95,ESE,105,0.0,0.0,69,0.00,,,0.00,WeatherCatV1.15B25,2013-05-06 06:46:00,
2013-05-06 02:51:00,49.4,40.4,29.95,ESE,105,0.0,0.0,71,0.00,,,0.00,WeatherCatV1.15B25,2013-05-06 06:51:00,
2013-05-06 02:56:00,49.0,40.4,29.94,ESE,105,0.0,0.0,72,0.00,,,0.00,WeatherCatV1.15B25,2013-05-06 06:56:00,
2013-05-06 03:01:00,48.6,41.0,29.94,ESE,105,0.0,0.0,75,0.00,,,0.00,WeatherCatV1.15B25,2013-05-06 07:01:00,
2013-05-06 03:06:00,48.0,40.5,29.94,ESE,105,0.0,0.0,75,0.00,,,0.00,WeatherCatV1.15B25,2013-05-06 07:06:00,
2013-05-06 03:11:00,47.5,39.6,29.94,ESE,105,0.0,0.0,74,0.00,,,0.00,WeatherCatV1.15B25,2013-05-06 07:11:00,
2013-05-06 03:16:00,47.0,39.5,29.94,ESE,105,0.0,0.0,75,0.00,,,0.00,WeatherCatV1.15B25,2013-05-06 07:16:00,
2013-05-06 03:21:00,46.5,39.0,29.95,ESE,105,0.0,0.0,75,0.00,,,0.00,WeatherCatV1.15B25,2013-05-06 07:21:00,
2013-05-06 03:26:00,46.0,39.5,29.95,ESE,105,0.0,0.0,78,0.00,,,0.00,WeatherCatV1.15B25,2013-05-06 07:26:00,
2013-05-06 03:31:00,45.8,40.6,29.95,ESE,105,0.0,0.0,82,0.00,,,0.00,WeatherCatV1.15B25,2013-05-06 07:31:00,
2013-05-06 03:36:00,45.5,39.7,29.95,ESE,105,0.0,0.0,80,0.00,,,0.00,WeatherCatV1.15B25,2013-05-06 07:36:00,
2013-05-06 03:41:00,45.1,40.2,29.95,ESE,105,0.0,0.0,83,0.00,,,0.00,WeatherCatV1.15B25,2013-05-06 07:41:00,
2013-05-06 03:46:00,45.2,41.0,29.95,ESE,105,0.0,0.0,85,0.00,,,0.00,WeatherCatV1.15B25,2013-05-06 07:46:00,
2013-05-06 03:51:00,45.2,41.3,29.94,ESE,105,0.0,0.0,86,0.00,,,0.00,WeatherCatV1.15B25,2013-05-06 07:51:00,
2013-05-06 03:56:00,45.0,40.8,29.94,ESE,105,0.0,0.0,85,0.00,,,0.00,WeatherCatV1.15B25,2013-05-06 07:56:00,
2013-05-06 04:01:00,44.9,40.4,29.94,ESE,105,0.0,0.0,84,0.00,,,0.00,WeatherCatV1.15B25,2013-05-06 08:01:00,
2013-05-06 04:06:00,44.9,40.1,29.94,ESE,105,0.0,0.0,83,0.00,,,0.00,WeatherCatV1.15B25,2013-05-06 08:06:00,
2013-05-06 04:11:00,45.0,39.8,29.94,ESE,105,0.0,0.0,82,0.00,,,0.00,WeatherCatV1.15B25,2013-05-06 08:11:00,
2013-05-06 04:16:00,45.1,40.6,29.94,ESE,105,0.0,0.0,84,0.00,,,0.00,WeatherCatV1.15B25,2013-05-06 08:16:00,
2013-05-06 04:21:00,45.1,40.6,29.94,ESE,105,0.0,0.0,84,0.00,,,0.00,WeatherCatV1.15B25,2013-05-06 08:21:00,
2013-05-06 04:26:00,45.0,40.5,29.94,ESE,105,0.0,0.0,84,0.00,,,0.00,WeatherCatV1.15B25,2013-05-06 08:26:00,
2013-05-06 04:31:00,44.7,40.2,29.94,ESE,105,0.0,0.0,84,0.00,,,0.00,WeatherCatV1.15B25,2013-05-06 08:31:00,
2013-05-06 04:36:00,44.5,40.0,29.94,ESE,105,0.0,0.0,84,0.00,,,0.00,WeatherCatV1.15B25,2013-05-06 08:36:00,
2013-05-06 04:41:00,44.3,39.8,29.94,ESE,105,0.0,0.0,84,0.00,,,0.00,WeatherCatV1.15B25,2013-05-06 08:41:00,
2013-05-06 04:46:00,44.2,39.7,29.94,ESE,105,0.0,0.0,84,0.00,,,0.00,WeatherCatV1.15B25,2013-05-06 08:46:00,
2013-05-06 04:51:00,44.1,39.6,29.94,ESE,105,0.0,0.0,84,0.00,,,0.00,WeatherCatV1.15B25,2013-05-06 08:51:00,
2013-05-06 04:56:00,44.0,39.2,29.94,ESE,105,0.0,0.0,83,0.00,,,0.00,WeatherCatV1.15B25,2013-05-06 08:56:00,
2013-05-06 05:01:00,43.8,39.0,29.94,ESE,105,0.0,0.0,83,0.00,,,0.00,WeatherCatV1.15B25,2013-05-06 09:01:00,
2013-05-06 05:06:00,43.7,39.2,29.94,ESE,105,0.0,0.0,84,0.00,,,0.00,WeatherCatV1.15B25,2013-05-06 09:06:00,
2013-05-06 05:11:00,43.8,39.6,29.94,ESE,105,0.0,0.0,85,0.00,,,0.00,WeatherCatV1.15B25,2013-05-06 09:11:00,
2013-05-06 05:16:00,44.0,39.5,29.94,ESE,105,0.0,0.0,84,0.00,,,0.00,WeatherCatV1.15B25,2013-05-06 09:16:00,
2013-05-06 05:21:00,44.2,39.7,29.94,ESE,105,0.0,0.0,84,0.00,,,0.00,WeatherCatV1.15B25,2013-05-06 09:21:00,
2013-05-06 05:26:00,44.4,40.2,29.94,ESE,105,0.0,0.0,85,0.00,,,0.00,WeatherCatV1.15B25,2013-05-06 09:26:00,
2013-05-06 05:31:00,44.5,40.3,29.94,ESE,105,0.0,0.0,85,0.00,,,0.00,WeatherCatV1.15B25,2013-05-06 09:31:00,
2013-05-06 05:36:00,44.4,40.2,29.94,ESE,105,0.0,0.0,85,0.00,,,0.00,WeatherCatV1.15B25,2013-05-06 09:36:00,
2013-05-06 05:41:00,44.1,39.9,29.94,ESE,105,0.0,0.0,85,0.00,,,0.00,WeatherCatV1.15B25,2013-05-06 09:41:00,
2013-05-06 05:46:00,43.8,39.3,29.94,ESE,105,0.0,0.0,84,0.00,,,0.00,WeatherCatV1.15B25,2013-05-06 09:46:00,
2013-05-06 05:51:00,43.4,38.9,29.95,ESE,105,0.0,0.0,84,0.00,,,0.00,WeatherCatV1.15B25,2013-05-06 09:51:00,
2013-05-06 05:56:00,43.2,39.0,29.95,ESE,105,0.0,0.0,85,0.00,,,0.00,WeatherCatV1.15B25,2013-05-06 09:56:00,
2013-05-06 06:01:00,42.9,39.0,29.95,ESE,105,0.0,0.0,86,0.00,,,0.00,WeatherCatV1.15B25,2013-05-06 10:01:00,
2013-05-06 06:06:00,42.7,38.8,29.95,ESE,105,0.0,0.0,86,0.00,,,0.00,WeatherCatV1.15B25,2013-05-06 10:06:00,
2013-05-06 06:11:00,42.6,38.7,29.95,ESE,105,0.0,0.0,86,0.00,,,0.00,WeatherCatV1.15B25,2013-05-06 10:11:00,
2013-05-06 06:16:00,42.5,38.9,29.95,ESE,105,0.0,0.0,87,0.00,,,0.00,WeatherCatV1.15B25,2013-05-06 10:16:00,
2013-05-06 06:21:00,42.4,38.8,29.95,ESE,105,0.0,0.0,87,0.00,,,0.00,WeatherCatV1.15B25,2013-05-06 10:21:00,
2013-05-06 06:26:00,42.4,38.8,29.95,ESE,105,0.0,0.0,87,0.00,,,0.00,WeatherCatV1.15B25,2013-05-06 10:26:00,
2013-05-06 06:31:00,42.3,38.7,29.95,ESE,105,0.0,0.0,87,0.00,,,0.00,WeatherCatV1.15B25,2013-05-06 10:31:00,
2013-05-06 06:36:00,42.3,39.0,29.96,ESE,105,0.0,0.0,88,0.00,,,0.00,WeatherCatV1.15B25,2013-05-06 10:36:00,
2013-05-06 06:41:00,42.5,39.2,29.96,ESE,105,0.0,1.0,88,0.00,,,0.00,WeatherCatV1.15B25,2013-05-06 10:41:00,
2013-05-06 06:46:00,42.6,39.0,29.96,ESE,105,0.0,0.0,87,0.00,,,0.00,WeatherCatV1.15B25,2013-05-06 10:46:00,
2013-05-06 06:51:00,42.7,39.1,29.96,ESE,105,0.0,0.0,87,0.00,,,0.00,WeatherCatV1.15B25,2013-05-06 10:51:00,
2013-05-06 06:56:00,42.9,39.3,29.96,ESE,105,0.0,1.0,87,0.00,,,0.00,WeatherCatV1.15B25,2013-05-06 10:56:00,
2013-05-06 07:01:00,43.1,39.2,29.96,ESE,105,0.0,1.0,86,0.00,,,0.00,WeatherCatV1.15B25,2013-05-06 11:01:00,
2013-05-06 07:06:00,43.5,39.3,29.97,WSW,243,0.0,0.0,85,0.00,,,0.00,WeatherCatV1.15B25,2013-05-06 11:06:00,
2013-05-06 07:11:00,44.1,39.9,29.97,WSW,243,0.0,0.0,85,0.00,,,0.00,WeatherCatV1.15B25,2013-05-06 11:11:00,
2013-05-06 07:16:00,44.7,40.5,29.97,WSW,243,0.0,1.0,85,0.00,,,0.00,WeatherCatV1.15B25,2013-05-06 11:16:00,
2013-05-06 07:21:00,45.3,40.4,29.97,WSW,243,0.0,0.0,83,0.00,,,0.00,WeatherCatV1.15B25,2013-05-06 11:21:00,
2013-05-06 07:26:00,46.2,40.7,29.97,WSW,243,0.0,1.0,81,0.00,,,0.00,WeatherCatV1.15B25,2013-05-06 11:26:00,
2013-05-06 07:31:00,47.1,41.3,29.98,South,173,0.0,1.0,80,0.00,,,0.00,WeatherCatV1.15B25,2013-05-06 11:31:00,
2013-05-06 07:36:00,48.2,41.3,29.98,East,86,1.0,2.0,77,0.00,,,0.00,WeatherCatV1.15B25,2013-05-06 11:36:00,
2013-05-06 07:41:00,49.3,41.7,29.98,East,87,1.0,5.0,75,0.00,,,0.00,WeatherCatV1.15B25,2013-05-06 11:41:00,
2013-05-06 07:46:00,50.1,41.4,29.98,East,98,2.0,5.0,72,0.00,,,0.00,WeatherCatV1.15B25,2013-05-06 11:46:00,
2013-05-06 07:51:00,51.0,41.9,29.98,East,98,2.0,3.0,71,0.00,,,0.00,WeatherCatV1.15B25,2013-05-06 11:51:00,
2013-05-06 07:56:00,51.7,41.9,29.98,East,95,1.0,6.0,69,0.00,,,0.00,WeatherCatV1.15B25,2013-05-06 11:56:00,
2013-05-06 08:01:00,52.1,41.9,29.98,East,97,3.0,4.0,68,0.00,,,0.00,WeatherCatV1.15B25,2013-05-06 12:01:00,
2013-05-06 08:06:00,52.5,41.5,29.98,ESE,103,3.0,7.0,66,0.00,,,0.00,WeatherCatV1.15B25,2013-05-06 12:06:00,
2013-05-06 08:11:00,52.9,41.9,29.98,East,88,5.0,7.0,66,0.00,,,0.00,WeatherCatV1.15B25,2013-05-06 12:11:00,
2013-05-06 08:16:00,53.3,41.0,29.98,East,96,5.0,7.0,63,0.00,,,0.00,WeatherCatV1.15B25,2013-05-06 12:16:00,
2013-05-06 08:21:00,53.7,41.4,29.98,ESE,113,1.0,8.0,63,0.00,,,0.00,WeatherCatV1.15B25,2013-05-06 12:21:00,
2013-05-06 08:26:00,54.1,41.4,29.98,East,97,6.0,8.0,62,0.00,,,0.00,WeatherCatV1.15B25,2013-05-06 12:26:00,
2013-05-06 08:31:00,54.3,41.6,29.98,ESE,105,4.0,7.0,62,0.00,,,0.00,WeatherCatV1.15B25,2013-05-06 12:31:00,
2013-05-06 08:36:00,54.6,41.0,29.98,ESE,109,4.0,8.0,60,0.00,,,0.00,WeatherCatV1.15B25,2013-05-06 12:36:00,
2013-05-06 08:41:00,54.8,42.0,29.99,ESE,109,3.0,4.0,62,0.00,,,0.00,WeatherCatV1.15B25,2013-05-06 12:41:00,
2013-05-06 08:46:00,55.1,41.5,29.99,East,101,6.0,8.0,60,0.00,,,0.00,WeatherCatV1.15B25,2013-05-06 12:46:00,
2013-05-06 08:51:00,55.3,41.7,29.99,ESE,117,4.0,4.0,60,0.00,,,0.00,WeatherCatV1.15B25,2013-05-06 12:51:00,
2013-05-06 08:56:00,55.5,41.0,29.99,East,101,9.0,9.0,58,0.00,,,0.00,WeatherCatV1.15B25,2013-05-06 12:56:00,
2013-05-06 09:01:00,55.6,41.1,29.99,ESE,115,5.0,13.0,58,0.00,,,0.00,WeatherCatV1.15B25,2013-05-06 13:01:00,
2013-05-06 09:06:00,55.7,41.6,29.99,SE,129,2.0,9.0,59,0.00,,,0.00,WeatherCatV1.15B25,2013-05-06 13:06:00,
2013-05-06 09:11:00,55.8,41.7,29.99,ESE,119,7.0,11.0,59,0.00,,,0.00,WeatherCatV1.15B25,2013-05-06 13:11:00,
2013-05-06 09:16:00,56.0,41.9,29.99,SE,139,3.0,9.0,59,0.00,,,0.00,WeatherCatV1.15B25,2013-05-06 13:16:00,
2013-05-06 09:21:00,56.3,41.3,29.99,ESE,106,4.0,8.0,57,0.00,,,0.00,WeatherCatV1.15B25,2013-05-06 13:21:00,
2013-05-06 09:26:00,56.6,42.0,30.00,East,85,6.0,7.0,58,0.00,,,0.00,WeatherCatV1.15B25,2013-05-06 13:26:00,
2013-05-06 09:31:00,56.9,42.3,30.00,ESE,110,7.0,8.0,58,0.00,,,0.00,WeatherCatV1.15B25,2013-05-06 13:31:00,
2013-05-06 09:36:00,57.2,42.6,29.99,East,92,2.0,7.0,58,0.00,,,0.00,WeatherCatV1.15B25,2013-05-06 13:36:00,
2013-05-06 09:41:00,57.6,43.4,29.99,ESE,103,3.0,6.0,59,0.00,,,0.00,WeatherCatV1.15B25,2013-05-06 13:41:00,
2013-05-06 09:46:00,58.0,42.9,29.99,ESE,114,5.0,7.0,57,0.00,,,0.00,WeatherCatV1.15B25,2013-05-06 13:46:00,
2013-05-06 09:51:00,58.5,42.9,29.99,East,98,6.0,7.0,56,0.00,,,0.00,WeatherCatV1.15B25,2013-05-06 13:51:00,
2013-05-06 09:56:00,58.9,42.8,29.99,East,81,3.0,7.0,55,0.00,,,0.00,WeatherCatV1.15B25,2013-05-06 13:56:00,
2013-05-06 10:01:00,59.5,43.3,29.99,ENE,68,3.0,7.0,55,0.00,,,0.00,WeatherCatV1.15B25,2013-05-06 14:01:00,
2013-05-06 10:06:00,59.8,42.6,29.99,East,100,3.0,3.0,53,0.00,,,0.00,WeatherCatV1.15B25,2013-05-06 14:06:00,
2013-05-06 10:11:00,60.1,41.9,29.99,ESE,102,4.0,7.0,51,0.00,,,0.00,WeatherCatV1.15B25,2013-05-06 14:11:00,
2013-05-06 10:16:00,60.3,41.6,29.99,ESE,113,3.0,8.0,50,0.00,,,0.00,WeatherCatV1.15B25,2013-05-06 14:16:00,
2013-05-06 10:21:00,60.7,41.9,29.99,NE,53,3.0,4.0,50,0.00,,,0.00,WeatherCatV1.15B25,2013-05-06 14:21:00,
2013-05-06 10:26:00,61.2,42.4,29.99,ENE,78,4.0,6.0,50,0.00,,,0.00,WeatherCatV1.15B25,2013-05-06 14:26:00,
2013-05-06 10:31:00,61.5,43.2,29.99,East,80,2.0,7.0,51,0.00,,,0.00,WeatherCatV1.15B25,2013-05-06 14:31:00,
2013-05-06 10:36:00,61.9,43.1,29.99,East,98,6.0,7.0,50,0.00,,,0.00,WeatherCatV1.15B25,2013-05-06 14:36:00,
2013-05-06 10:41:00,62.0,44.7,29.99,East,79,3.0,3.0,53,0.00,,,0.00,WeatherCatV1.15B25,2013-05-06 14:41:00,
2013-05-06 10:45:00,62.2,42.3,29.99,ENE,63,5.0,8.0,48,0.00,,,0.00,WeatherCatV1.15B25,2013-05-06 14:45:00,
2013-05-06 10:50:00,62.2,42.3,30.00,East,101,5.0,5.0,48,0.00,,,0.00,WeatherCatV1.15B25,2013-05-06 14:50:00,
2013-05-06 10:55:00,62.6,45.2,29.99,ESE,106,8.0,9.0,53,0.00,,,0.00,WeatherCatV1.15B25,2013-05-06 14:55:00,
2013-05-06 11:00:00,63.2,45.3,29.99,East,82,6.0,9.0,52,0.00,,,0.00,WeatherCatV1.15B25,2013-05-06 15:00:00,
2013-05-06 11:05:00,63.6,44.1,29.99,ENE,74,4.0,8.0,49,0.00,,,0.00,WeatherCatV1.15B25,2013-05-06 15:05:00,
2013-05-06 11:10:00,63.7,44.2,29.99,East,96,3.0,7.0,49,0.00,,,0.00,WeatherCatV1.15B25,2013-05-06 15:10:00,
2013-05-06 11:15:00,63.8,44.3,29.99,East,83,5.0,7.0,49,0.00,,,0.00,WeatherCatV1.15B25,2013-05-06 15:15:00,
2013-05-06 11:20:00,63.7,43.1,29.99,SSE,152,1.0,6.0,47,0.00,,,0.00,WeatherCatV1.15B25,2013-05-06 15:20:00,
2013-05-06 11:25:00,63.8,43.7,29.99,East,93,5.0,8.0,48,0.00,,,0.00,WeatherCatV1.15B25,2013-05-06 15:25:00,
2013-05-06 11:30:00,63.9,43.3,29.99,ESE,105,4.0,8.0,47,0.00,,,0.00,WeatherCatV1.15B25,2013-05-06 15:30:00,
2013-05-06 11:35:00,64.1,42.9,29.99,SE,143,4.0,10.0,46,0.00,,,0.00,WeatherCatV1.15B25,2013-05-06 15:35:00,
2013-05-06 11:40:00,64.7,45.1,29.99,East,100,9.0,9.0,49,0.00,,,0.00,WeatherCatV1.15B25,2013-05-06 15:40:00,
2013-05-06 11:45:00,64.8,43.5,29.99,ENE,67,2.0,6.0,46,0.00,,,0.00,WeatherCatV1.15B25,2013-05-06 15:45:00,
2013-05-06 11:50:00,65.3,43.4,29.99,ESE,119,5.0,10.0,45,0.00,,,0.00,WeatherCatV1.15B25,2013-05-06 15:50:00,
2013-05-06 11:55:00,65.6,43.1,29.99,ENE,77,8.0,10.0,44,0.00,,,0.00,WeatherCatV1.15B25,2013-05-06 15:55:00,
2013-05-06 12:00:00,65.4,44.6,29.99,NE,53,0.0,7.0,47,0.00,,,0.00,WeatherCatV1.15B25,2013-05-06 16:00:00,
2013-05-06 12:05:00,65.6,44.3,29.99,East,88,7.0,8.0,46,0.00,,,0.00,WeatherCatV1.15B25,2013-05-06 16:05:00,
2013-05-06 12:10:00,65.7,44.3,29.99,East,82,9.0,9.0,46,0.00,,,0.00,WeatherCatV1.15B25,2013-05-06 16:10:00,
2013-05-06 12:15:00,66.2,44.8,29.98,ENE,76,2.0,8.0,46,0.00,,,0.00,WeatherCatV1.15B25,2013-05-06 16:15:00,
2013-05-06 12:20:00,66.4,44.4,29.98,ENE,70,4.0,10.0,45,0.00,,,0.00,WeatherCatV1.15B25,2013-05-06 16:20:00,
2013-05-06 12:25:00,66.6,46.8,29.98,ESE,109,4.0,7.0,49,0.00,,,0.00,WeatherCatV1.15B25,2013-05-06 16:25:00,
2013-05-06 12:30:00,67.5,44.8,29.98,ENE,76,4.0,9.0,44,0.00,,,0.00,WeatherCatV1.15B25,2013-05-06 16:30:00,
2013-05-06 12:35:00,67.9,45.2,29.98,SE,135,4.0,15.0,44,0.00,,,0.00,WeatherCatV1.15B25,2013-05-06 16:35:00,
2013-05-06 12:40:00,68.0,45.3,29.98,ESE,123,8.0,9.0,44,0.00,,,0.00,WeatherCatV1.15B25,2013-05-06 16:40:00,
2013-05-06 12:45:00,68.2,46.0,29.97,ESE,103,2.0,11.0,45,0.00,,,0.00,WeatherCatV1.15B25,2013-05-06 16:45:00,
2013-05-06 12:50:00,68.4,45.6,29.97,NNE,33,5.0,8.0,44,0.00,,,0.00,WeatherCatV1.15B25,2013-05-06 16:50:00,
2013-05-06 12:55:00,68.5,45.1,29.97,NNE,26,6.0,7.0,43,0.00,,,0.00,WeatherCatV1.15B25,2013-05-06 16:55:00,
2013-05-06 13:00:00,68.9,45.5,29.97,SE,136,3.0,6.0,43,0.00,,,0.00,WeatherCatV1.15B25,2013-05-06 17:00:00,
2013-05-06 13:05:00,69.0,45.6,29.97,ESE,104,5.0,11.0,43,0.00,,,0.00,WeatherCatV1.15B25,2013-05-06 17:05:00,
2013-05-06 13:10:00,68.8,46.0,29.97,East,98,5.0,9.0,44,0.00,,,0.00,WeatherCatV1.15B25,2013-05-06 17:10:00,
2013-05-06 13:15:00,68.8,45.4,29.97,SE,134,7.0,11.0,43,0.00,,,0.00,WeatherCatV1.15B25,2013-05-06 17:15:00,
2013-05-06 13:20:00,68.7,45.3,29.96,NE,42,6.0,8.0,43,0.00,,,0.00,WeatherCatV1.15B25,2013-05-06 17:20:00,
2013-05-06 13:25:00,69.8,47.5,29.96,ENE,75,10.0,10.0,45,0.00,,,0.00,WeatherCatV1.15B25,2013-05-06 17:25:00,
2013-05-06 13:30:00,69.5,46.6,29.96,ENE,71,8.0,11.0,44,0.00,,,0.00,WeatherCatV1.15B25,2013-05-06 17:30:00,
2013-05-06 13:35:00,69.5,47.8,29.96,ENE,78,10.0,10.0,46,0.00,,,0.00,WeatherCatV1.15B25,2013-05-06 17:35:00,
2013-05-06 13:40:00,69.6,46.1,29.96,East,84,6.0,10.0,43,0.00,,,0.00,WeatherCatV1.15B25,2013-05-06 17:40:00,
2013-05-06 13:45:00,69.7,46.8,29.95,ENE,61,3.0,8.0,44,0.00,,,0.00,WeatherCatV1.15B25,2013-05-06 17:45:00,
2013-05-06 13:50:00,69.9,47.6,29.96,East,101,10.0,13.0,45,0.00,,,0.00,WeatherCatV1.15B25,2013-05-06 17:50:00,
2013-05-06 13:55:00,69.8,48.6,29.96,NE,47,6.0,11.0,47,0.00,,,0.00,WeatherCatV1.15B25,2013-05-06 17:55:00,
2013-05-06 14:00:00,69.7,46.2,29.96,East,86,10.0,14.0,43,0.00,,,0.00,WeatherCatV1.15B25,2013-05-06 18:00:00,
2013-05-06 14:05:00,69.7,46.8,29.95,NE,46,9.0,9.0,44,0.00,,,0.00,WeatherCatV1.15B25,2013-05-06 18:05:00,
2013-05-06 14:10:00,70.1,48.9,29.95,East,93,7.0,7.0,47,0.00,,,0.00,WeatherCatV1.15B25,2013-05-06 18:10:00,
2013-05-06 14:15:00,70.5,48.1,29.95,East,98,6.0,11.0,45,0.00,,,0.00,WeatherCatV1.15B25,2013-05-06 18:15:00,
2013-05-06 14:20:00,70.9,48.5,29.95,NE,51,7.0,11.0,45,0.00,,,0.00,WeatherCatV1.15B25,2013-05-06 18:20:00,
2013-05-06 14:25:00,71.0,49.2,29.95,East,94,9.0,10.0,46,0.00,,,0.00,WeatherCatV1.15B25,2013-05-06 18:25:00,
2013-05-06 14:30:00,71.3,49.4,29.95,East,82,9.0,13.0,46,0.00,,,0.00,WeatherCatV1.15B25,2013-05-06 18:30:00,
2013-05-06 14:35:00,71.1,48.1,29.95,ESE,103,4.0,11.0,44,0.00,,,0.00,WeatherCatV1.15B25,2013-05-06 18:35:00,
2013-05-06 14:40:00,70.9,47.9,29.95,ENE,65,3.0,7.0,44,0.00,,,0.00,WeatherCatV1.15B25,2013-05-06 18:40:00,
2013-05-06 14:45:00,70.6,48.8,29.95,ENE,74,5.0,13.0,46,0.00,,,0.00,WeatherCatV1.15B25,2013-05-06 18:45:00,
2013-05-06 14:50:00,70.8,50.7,29.95,East,95,6.0,7.0,49,0.00,,,0.00,WeatherCatV1.15B25,2013-05-06 18:50:00,
2013-05-06 14:55:00,70.7,49.5,29.94,NE,40,5.0,7.0,47,0.00,,,0.00,WeatherCatV1.15B25,2013-05-06 18:55:00,
2013-05-06 15:00:00,70.8,49.6,29.94,East,96,3.0,8.0,47,0.00,,,0.00,WeatherCatV1.15B25,2013-05-06 19:00:00,
2013-05-06 15:05:00,71.0,48.6,29.94,ENE,63,4.0,8.0,45,0.00,,,0.00,WeatherCatV1.15B25,2013-05-06 19:05:00,
2013-05-06 15:10:00,71.3,48.8,29.94,East,98,5.0,10.0,45,0.00,,,0.00,WeatherCatV1.15B25,2013-05-06 19:10:00,
2013-05-06 15:15:00,71.8,49.9,29.94,East,88,3.0,7.0,46,0.00,,,0.00,WeatherCatV1.15B25,2013-05-06 19:15:00,
2013-05-06 15:20:00,72.3,49.8,29.94,ESE,103,7.0,13.0,45,0.00,,,0.00,WeatherCatV1.15B25,2013-05-06 19:20:00,
2013-05-06 15:25:00,72.3,48.5,29.93,SSE,157,3.0,10.0,43,0.00,,,0.00,WeatherCatV1.15B25,2013-05-06 19:25:00,
2013-05-06 15:30:00,72.5,49.9,29.93,ESE,123,4.0,13.0,45,0.00,,,0.00,WeatherCatV1.15B25,2013-05-06 19:30:00,
2013-05-06 15:35:00,72.5,48.7,29.93,ENE,68,8.0,16.0,43,0.00,,,0.00,WeatherCatV1.15B25,2013-05-06 19:35:00,
2013-05-06 15:40:00,72.3,49.8,29.93,ESE,123,7.0,11.0,45,0.00,,,0.00,WeatherCatV1.15B25,2013-05-06 19:40:00,
2013-05-06 15:45:00,72.3,49.8,29.93,ENE,60,5.0,12.0,45,0.00,,,0.00,WeatherCatV1.15B25,2013-05-06 19:45:00,
2013-05-06 15:50:00,72.6,50.0,29.93,ESE,116,8.0,13.0,45,0.00,,,0.00,WeatherCatV1.15B25,2013-05-06 19:50:00,
2013-05-06 15:55:00,72.7,49.5,29.92,SE,138,4.0,4.0,44,0.00,,,0.00,WeatherCatV1.15B25,2013-05-06 19:55:00,
2013-05-06 16:00:00,72.7,51.9,29.92,East,90,10.0,13.0,48,0.00,,,0.00,WeatherCatV1.15B25,2013-05-06 20:00:00,
2013-05-06 16:05:00,72.6,51.2,29.92,ESE,117,7.0,11.0,47,0.00,,,0.00,WeatherCatV1.15B25,2013-05-06 20:05:00,
2013-05-06 16:10:00,72.8,50.8,29.92,NE,39,8.0,10.0,46,0.00,,,0.00,WeatherCatV1.15B25,2013-05-06 20:10:00,
2013-05-06 16:15:00,72.8,49.6,29.92,SSE,148,7.0,10.0,44,0.00,,,0.00,WeatherCatV1.15B25,2013-05-06 20:15:00,
2013-05-06 16:20:00,72.7,50.1,29.92,East,90,7.0,11.0,45,0.00,,,0.00,WeatherCatV1.15B25,2013-05-06 20:20:00,
2013-05-06 16:25:00,72.5,49.3,29.92,East,92,3.0,9.0,44,0.00,,,0.00,WeatherCatV1.15B25,2013-05-06 20:25:00,
2013-05-06 16:30:00,72.6,50.0,29.92,East,85,8.0,11.0,45,0.00,,,0.00,WeatherCatV1.15B25,2013-05-06 20:30:00,
2013-05-06 16:35:00,72.7,50.7,29.91,ENE,78,4.0,9.0,46,0.00,,,0.00,WeatherCatV1.15B25,2013-05-06 20:35:00,
2013-05-06 16:40:00,72.6,51.8,29.91,ENE,76,7.0,8.0,48,0.00,,,0.00,WeatherCatV1.15B25,2013-05-06 20:40:00,
2013-05-06 16:45:00,72.7,50.7,29.91,ESE,103,4.0,9.0,46,0.00,,,0.00,WeatherCatV1.15B25,2013-05-06 20:45:00,
2013-05-06 16:50:00,73.0,49.8,29.91,East,84,8.0,13.0,44,0.00,,,0.00,WeatherCatV1.15B25,2013-05-06 20:50:00,
2013-05-06 16:55:00,73.0,51.6,29.90,ESE,107,7.0,8.0,47,0.00,,,0.00,WeatherCatV1.15B25,2013-05-06 20:55:00,
2013-05-06 17:00:00,73.1,49.9,29.91,East,88,7.0,11.0,44,0.00,,,0.00,WeatherCatV1.15B25,2013-05-06 21:00:00,
2013-05-06 17:05:00,73.5,50.2,29.90,East,96,5.0,9.0,44,0.00,,,0.00,WeatherCatV1.15B25,2013-05-06 21:05:00,
2013-05-06 17:10:00,73.6,48.4,29.91,East,99,8.0,13.0,41,0.00,,,0.00,WeatherCatV1.15B25,2013-05-06 21:10:00,
2013-05-06 17:15:00,73.6,51.5,29.90,East,79,9.0,10.0,46,0.00,,,0.00,WeatherCatV1.15B25,2013-05-06 21:15:00,
2013-05-06 17:20:00,73.0,45.2,29.91,SSE,153,6.0,17.0,37,0.00,,,0.00,WeatherCatV1.15B25,2013-05-06 21:20:00,
2013-05-06 17:25:00,72.7,44.2,29.91,SE,126,6.0,12.0,36,0.00,,,0.00,WeatherCatV1.15B25,2013-05-06 21:25:00,
2013-05-06 17:30:00,72.9,46.5,29.91,SSE,148,5.0,10.0,39,0.00,,,0.00,WeatherCatV1.15B25,2013-05-06 21:30:00,
2013-05-06 17:35:00,72.5,45.4,29.91,SSE,147,5.0,14.0,38,0.00,,,0.00,WeatherCatV1.15B25,2013-05-06 21:35:00,
2013-05-06 17:40:00,71.9,46.9,29.91,ESE,105,10.0,11.0,41,0.00,,,0.00,WeatherCatV1.15B25,2013-05-06 21:40:00,
2013-05-06 17:45:00,71.5,45.2,29.91,SE,143,8.0,11.0,39,0.00,,,0.00,WeatherCatV1.15B25,2013-05-06 21:45:00,
2013-05-06 17:50:00,71.2,46.9,29.91,SE,126,8.0,12.0,42,0.00,,,0.00,WeatherCatV1.15B25,2013-05-06 21:50:00,
2013-05-06 17:55:00,71.2,46.9,29.91,SE,138,4.0,9.0,42,0.00,,,0.00,WeatherCatV1.15B25,2013-05-06 21:55:00,
2013-05-06 18:00:00,71.1,47.5,29.91,SE,142,6.0,6.0,43,0.00,,,0.00,WeatherCatV1.15B25,2013-05-06 22:00:00,
2013-05-06 18:05:00,70.8,45.9,29.91,ESE,113,2.0,10.0,41,0.00,,,0.00,WeatherCatV1.15B25,2013-05-06 22:05:00,
2013-05-06 18:10:00,70.6,46.4,29.91,ESE,115,8.0,12.0,42,0.00,,,0.00,WeatherCatV1.15B25,2013-05-06 22:10:00,
2013-05-06 18:15:00,70.5,46.9,29.92,East,82,7.0,11.0,43,0.00,,,0.00,WeatherCatV1.15B25,2013-05-06 22:15:00,
2013-05-06 18:20:00,70.4,48.0,29.92,SE,131,7.0,7.0,45,0.00,,,0.00,WeatherCatV1.15B25,2013-05-06 22:20:00,
2013-05-06 18:25:00,70.3,47.3,29.92,ESE,119,3.0,8.0,44,0.00,,,0.00,WeatherCatV1.15B25,2013-05-06 22:25:00,
2013-05-06 18:30:00,70.1,47.2,29.92,SE,143,5.0,9.0,44,0.00,,,0.00,WeatherCatV1.15B25,2013-05-06 22:30:00,
2013-05-06 18:35:00,70.0,47.1,29.92,ESE,118,3.0,8.0,44,0.00,,,0.00,WeatherCatV1.15B25,2013-05-06 22:35:00,
2013-05-06 18:40:00,69.8,46.3,29.92,SE,146,6.0,10.0,43,0.00,,,0.00,WeatherCatV1.15B25,2013-05-06 22:40:00,
2013-05-06 18:45:00,69.7,46.8,29.92,SE,131,6.0,10.0,44,0.00,,,0.00,WeatherCatV1.15B25,2013-05-06 22:45:00,
2013-05-06 18:50:00,69.5,47.2,29.92,SE,146,4.0,12.0,45,0.00,,,0.00,WeatherCatV1.15B25,2013-05-06 22:50:00,
2013-05-06 18:55:00,69.3,47.0,29.92,SE,134,4.0,10.0,45,0.00,,,0.00,WeatherCatV1.15B25,2013-05-06 22:55:00,
2013-05-06 19:00:00,69.0,47.3,29.92,SE,138,2.0,7.0,46,0.00,,,0.00,WeatherCatV1.15B25,2013-05-06 23:00:00,
2013-05-06 19:05:00,68.8,47.7,29.92,SE,125,5.0,8.0,47,0.00,,,0.00,WeatherCatV1.15B25,2013-05-06 23:05:00,
2013-05-06 19:10:00,68.6,47.6,29.92,SSE,155,5.0,8.0,47,0.00,,,0.00,WeatherCatV1.15B25,2013-05-06 23:10:00,
2013-05-06 19:15:00,68.4,47.9,29.92,SE,138,8.0,9.0,48,0.00,,,0.00,WeatherCatV1.15B25,2013-05-06 23:15:00,
2013-05-06 19:20:00,68.2,47.2,29.92,SE,140,4.0,7.0,47,0.00,,,0.00,WeatherCatV1.15B25,2013-05-06 23:20:00,
2013-05-06 19:25:00,68.0,48.1,29.92,ESE,117,3.0,5.0,49,0.00,,,0.00,WeatherCatV1.15B25,2013-05-06 23:25:00,
2013-05-06 19:30:00,67.9,47.5,29.92,SE,129,4.0,9.0,48,0.00,,,0.00,WeatherCatV1.15B25,2013-05-06 23:30:00,
2013-05-06 19:35:00,67.7,47.3,29.92,ESE,113,3.0,5.0,48,0.00,,,0.00,WeatherCatV1.15B25,2013-05-06 23:35:00,
2013-05-06 19:40:00,67.5,47.1,29.92,ESE,121,5.0,9.0,48,0.00,,,0.00,WeatherCatV1.15B25,2013-05-06 23:40:00,
2013-05-06 19:45:00,67.4,46.5,29.92,SE,142,2.0,5.0,47,0.00,,,0.00,WeatherCatV1.15B25,2013-05-06 23:45:00,
2013-05-06 19:50:00,67.3,46.4,29.93,SE,139,4.0,6.0,47,0.00,,,0.00,WeatherCatV1.15B25,2013-05-06 23:50:00,
2013-05-06 19:55:00,67.2,46.3,29.93,SE,128,2.0,3.0,47,0.00,,,0.00,WeatherCatV1.15B25,2013-05-06 23:55:00,
2013-05-06 20:00:00,67.1,46.2,29.93,SE,133,3.0,5.0,47,0.00,,,0.00,WeatherCatV1.15B25,2013-05-07 00:00:00,
2013-05-06 20:05:00,67.0,46.1,29.93,ESE,106,4.0,4.0,47,0.00,,,0.00,WeatherCatV1.15B25,2013-05-07 00:05:00,
2013-05-06 20:10:00,66.9,46.0,29.93,SE,146,1.0,5.0,47,0.00,,,0.00,WeatherCatV1.15B25,2013-05-07 00:10:00,
2013-05-06 20:15:00,66.6,45.7,29.93,SE,132,2.0,4.0,47,0.00,,,0.00,WeatherCatV1.15B25,2013-05-07 00:15:00,
2013-05-06 20:20:00,66.5,46.2,29.93,ESE,121,1.0,1.0,48,0.00,,,0.00,WeatherCatV1.15B25,2013-05-07 00:20:00,
2013-05-06 20:25:00,66.2,45.9,29.93,SE,143,1.0,2.0,48,0.00,,,0.00,WeatherCatV1.15B25,2013-05-07 00:25:00,
2013-05-06 20:30:00,65.9,46.2,29.93,SE,143,0.0,1.0,49,0.00,,,0.00,WeatherCatV1.15B25,2013-05-07 00:30:00,
2013-05-06 20:35:00,65.8,46.1,29.93,SE,143,0.0,1.0,49,0.00,,,0.00,WeatherCatV1.15B25,2013-05-07 00:35:00,
2013-05-06 20:40:00,65.6,45.9,29.93,SE,143,0.0,1.0,49,0.00,,,0.00,WeatherCatV1.15B25,2013-05-07 00:40:00,
2013-05-06 20:45:00,65.4,46.3,29.93,SE,143,0.0,0.0,50,0.00,,,0.00,WeatherCatV1.15B25,2013-05-07 00:45:00,
2013-05-06 20:50:00,65.1,46.5,29.93,SE,143,0.0,0.0,51,0.00,,,0.00,WeatherCatV1.15B25,2013-05-07 00:50:00,
2013-05-06 20:55:00,64.8,46.2,29.94,SE,143,0.0,0.0,51,0.00,,,0.00,WeatherCatV1.15B25,2013-05-07 00:55:00,
2013-05-06 21:00:00,64.5,48.0,29.94,SE,143,0.0,0.0,55,0.00,,,0.00,WeatherCatV1.15B25,2013-05-07 01:00:00,
2013-05-06 21:05:00,63.9,47.9,29.94,SE,143,0.0,0.0,56,0.00,,,0.00,WeatherCatV1.15B25,2013-05-07 01:05:00,
2013-05-06 21:10:00,63.2,48.2,29.94,SE,143,0.0,0.0,58,0.00,,,0.00,WeatherCatV1.15B25,2013-05-07 01:10:00,
2013-05-06 21:15:00,62.7,49.1,29.94,SE,143,0.0,0.0,61,0.00,,,0.00,WeatherCatV1.15B25,2013-05-07 01:15:00,
2013-05-06 21:20:00,62.3,48.7,29.94,SE,143,0.0,0.0,61,0.00,,,0.00,WeatherCatV1.15B25,2013-05-07 01:20:00,
2013-05-06 21:25:00,61.9,49.6,29.94,SE,143,0.0,0.0,64,0.00,,,0.00,WeatherCatV1.15B25,2013-05-07 01:25:00,
2013-05-06 21:30:00,61.5,49.2,29.94,SE,143,0.0,0.0,64,0.00,,,0.00,WeatherCatV1.15B25,2013-05-07 01:30:00,
2013-05-06 21:36:00,61.1,47.1,29.95,SE,143,0.0,0.0,60,0.00,,,0.00,WeatherCatV1.15B25,2013-05-07 01:36:00,
2013-05-06 21:41:00,60.8,47.7,29.95,SE,143,0.0,0.0,62,0.00,,,0.00,WeatherCatV1.15B25,2013-05-07 01:41:00,
2013-05-06 21:46:00,60.5,47.4,29.95,SE,143,0.0,0.0,62,0.00,,,0.00,WeatherCatV1.15B25,2013-05-07 01:46:00,
2013-05-06 21:51:00,60.0,47.4,29.95,SE,143,0.0,0.0,63,0.00,,,0.00,WeatherCatV1.15B25,2013-05-07 01:51:00,
2013-05-06 21:56:00,59.5,46.9,29.95,SE,143,0.0,0.0,63,0.00,,,0.00,WeatherCatV1.15B25,2013-05-07 01:56:00,
2013-05-06 22:00:00,59.2,47.4,29.95,SE,143,0.0,0.0,65,0.00,,,0.00,WeatherCatV1.15B25,2013-05-07 02:00:00,
2013-05-06 22:05:00,58.7,50.1,29.95,SE,143,0.0,0.0,73,0.00,,,0.00,WeatherCatV1.15B25,2013-05-07 02:05:00,
2013-05-06 22:10:00,58.3,49.3,29.95,SE,143,0.0,0.0,72,0.00,,,0.00,WeatherCatV1.15B25,2013-05-07 02:10:00,
2013-05-06 22:15:00,57.8,48.1,29.95,SE,143,0.0,0.0,70,0.00,,,0.00,WeatherCatV1.15B25,2013-05-07 02:15:00,
2013-05-06 22:20:00,57.4,48.1,29.95,SE,143,0.0,0.0,71,0.00,,,0.00,WeatherCatV1.15B25,2013-05-07 02:20:00,
2013-05-06 22:25:00,57.1,47.0,29.95,SE,143,0.0,1.0,69,0.00,,,0.00,WeatherCatV1.15B25,2013-05-07 02:25:00,
2013-05-06 22:30:00,56.8,47.1,29.95,SE,143,0.0,1.0,70,0.00,,,0.00,WeatherCatV1.15B25,2013-05-07 02:30:00,
2013-05-06 22:36:00,56.6,47.3,29.95,SE,143,0.0,0.0,71,0.00,,,0.00,WeatherCatV1.15B25,2013-05-07 02:36:00,
2013-05-06 22:41:00,56.3,47.4,29.95,SE,143,0.0,0.0,72,0.00,,,0.00,WeatherCatV1.15B25,2013-05-07 02:41:00,
2013-05-06 22:46:00,55.9,48.1,29.95,SE,143,0.0,0.0,75,0.00,,,0.00,WeatherCatV1.15B25,2013-05-07 02:46:00,
2013-05-06 22:51:00,55.6,48.5,29.95,SE,143,0.0,0.0,77,0.00,,,0.00,WeatherCatV1.15B25,2013-05-07 02:51:00,
2013-05-06 22:56:00,55.3,48.9,29.96,SE,143,0.0,0.0,79,0.00,,,0.00,WeatherCatV1.15B25,2013-05-07 02:56:00,
2013-05-06 23:01:00,55.0,48.3,29.96,SE,143,0.0,0.0,78,0.00,,,0.00,WeatherCatV1.15B25,2013-05-07 03:01:00,
2013-05-06 23:06:00,54.8,48.1,29.95,SE,143,0.0,0.0,78,0.00,,,0.00,WeatherCatV1.15B25,2013-05-07 03:06:00,
2013-05-06 23:11:00,54.5,47.8,29.96,SE,143,0.0,0.0,78,0.00,,,0.00,WeatherCatV1.15B25,2013-05-07 03:11:00,
2013-05-06 23:16:00,54.3,47.6,29.96,SE,143,0.0,0.0,78,0.00,,,0.00,WeatherCatV1.15B25,2013-05-07 03:16:00,
2013-05-06 23:21:00,54.2,47.5,29.96,SE,143,0.0,0.0,78,0.00,,,0.00,WeatherCatV1.15B25,2013-05-07 03:21:00,
2013-05-06 23:26:00,54.3,47.2,29.96,SE,143,0.0,0.0,77,0.00,,,0.00,WeatherCatV1.15B25,2013-05-07 03:26:00,
2013-05-06 23:31:00,54.2,47.1,29.96,SE,143,0.0,0.0,77,0.00,,,0.00,WeatherCatV1.15B25,2013-05-07 03:31:00,
2013-05-06 23:36:00,54.2,46.8,29.96,SE,143,0.0,0.0,76,0.00,,,0.00,WeatherCatV1.15B25,2013-05-07 03:36:00,
2013-05-06 23:41:00,54.4,47.0,29.96,SE,143,0.0,2.0,76,0.00,,,0.00,WeatherCatV1.15B25,2013-05-07 03:41:00,
2013-05-06 23:46:00,54.6,46.8,29.96,SE,143,1.0,2.0,75,0.00,,,0.00,WeatherCatV1.15B25,2013-05-07 03:46:00,
2013-05-06 23:51:00,54.7,46.9,29.96,SE,143,0.0,0.0,75,0.00,,,0.00,WeatherCatV1.15B25,2013-05-07 03:51:00,
2013-05-06 23:53:00,54.6,46.8,29.96,SE,143,0.0,0.0,75,0.00,,,0.00,WeatherCatV1.15B25,2013-05-07 03:53:00,
2013-05-06 23:58:00,54.3,47.2,29.96,SE,143,0.0,0.0,77,0.00,,,0.00,WeatherCatV1.15B25,2013-05-07 03:58:00,